Location: Coupvray
(48.8929°N, 2.7967°E)
Time: 10:59:15
(UTC+00:00)

Cosmos 2360 - Pass Details

Date: 14 July 2020
Orbit: 844 x 858 km, 70.8° (Epoch: 06 August)

Event Time Altitude Azimuth Distance (km) Brightness Sun altitude
Rises 02:34:09 0° 327° (NNW) 3,442 7.7 -11.0°
Reaches altitude 10° 02:36:41 10° 323° (NW) 2,502 6.9 -10.8°
Maximum altitude 02:42:11 49° 250° (WSW) 1,097 4.5 -10.2°
Drops below altitude 10° 02:47:40 10° 177° (S) 2,485 6.2 -9.7°
Sets 02:50:10 0° 172° (S) 3,416 7.0 -9.4°
